FW7556 Weather Reports


Display with metric or nautical units.
time (UTC)temp
F
wind
direction
speed
MPH
gust
MPH
rain 1hr
in
rain 24hr
in
rain mn
in
humidity
%
barometer
mb
20260503032551 43 74 0.0 0.0 0.00 0.00 0.00 71 1015.5
20260503032049 43 82 0.0 0.0 0.00 0.00 0.00 71 1015.6
20260503031546 43 82 0.0 0.0 0.00 0.00 0.00 71 1015.3
20260503031043 43 82 0.0 0.0 0.00 0.00 0.00 71 1015.6
20260503030539 44 82 0.0 0.0 0.00 0.00 0.00 71 1015.5
20260503030037 44 82 0.0 0.0 0.00 0.00 0.00 71 1015.4
20260503025533 44 82 0.0 0.0 0.00 0.00 0.00 71 1015.4
20260503025031 44 82 0.0 0.0 0.00 0.00 0.00 70 1015.4
20260503024527 44 82 0.0 0.0 0.00 0.00 0.00 70 1015.2
20260503024025 44 82 0.0 0.0 0.00 0.00 0.00 70 1015.3
20260503023521 45 140 0.0 1.0 0.00 0.00 0.00 70 1015.4
20260503023019 45 29 0.0 0.0 0.00 0.00 0.00 70 1015.2
20260503022514 45 29 0.0 0.0 0.00 0.00 0.00 70 1015.3
20260503022009 45 23 0.0 0.0 0.00 0.00 0.00 69 1015.3
20260503021506 45 23 0.0 0.0 0.00 0.00 0.00 69 1015.2
20260503021003 46 23 0.0 0.0 0.00 0.00 0.00 68 1015.1
20260503020501 46 23 0.0 0.0 0.00 0.00 0.00 68 1015.0
20260503015957 46 23 0.0 0.0 0.00 0.00 0.00 68 1014.7
20260503015454 46 40 0.0 0.0 0.00 0.00 0.00 67 1015.0
20260503014950 46 40 0.0 0.0 0.00 0.00 0.00 67 1015.0
20260503014447 47 40 0.0 0.0 0.00 0.00 0.00 67 1014.8
20260503013945 47 40 0.0 0.0 0.00 0.00 0.00 67 1014.8
20260503013442 48 40 0.0 0.0 0.00 0.00 0.00 66 1014.4
20260503012939 48 40 0.0 0.0 0.00 0.00 0.00 66 1014.5
20260503012437 48 195 0.0 0.0 0.00 0.00 0.00 65 1014.5
20260503011933 48 195 0.0 0.0 0.00 0.00 0.00 65 1014.4
20260503011430 48 195 0.0 0.0 0.00 0.00 0.00 65 1014.1
20260503010927 49 7 0.0 1.0 0.00 0.00 0.00 64 1013.9
20260503010424 50 8 0.0 0.0 0.00 0.00 0.00 64 1013.8
20260503005921 50 66 0.0 0.0 0.00 0.00 0.00 63 1013.8
20260503005418 50 66 0.0 0.0 0.00 0.00 0.00 63 1013.7
20260503004915 51 165 0.0 0.0 0.00 0.00 0.00 63 1013.4
20260503004412 51 165 0.0 0.0 0.00 0.00 0.00 63 1013.7
20260503003909 51 165 0.0 0.0 0.00 0.00 0.00 62 1013.4
20260503003406 51 165 0.0 0.0 0.00 0.00 0.00 62 1013.6
20260503002903 52 165 0.0 1.0 0.00 0.00 0.00 62 1013.4
20260503002400 52 0 0.0 1.0 0.00 0.00 0.00 61 1013.6
20260503001856 52 180 0.0 0.0 0.00 0.00 0.00 61 1013.5
20260503001353 52 180 0.0 0.0 0.00 0.00 0.00 61 1013.4
20260503000851 52 195 0.0 0.0 0.00 0.00 0.00 60 1013.3
20260503000348 53 195 0.0 0.0 0.00 0.00 0.00 60 1013.2
20260502235844 53 195 0.0 0.0 0.00 0.00 0.00 59 1013.2
20260502235342 53 195 0.0 0.0 0.00 0.00 0.00 59 1013.0
20260502234838 53 195 0.0 0.0 0.00 0.00 0.00 58 1013.2
20260502234335 53 195 0.0 0.0 0.00 0.00 0.00 57 1012.9
20260502233832 54 195 0.0 0.0 0.00 0.00 0.00 57 1012.9
20260502233328 54 195 0.0 0.0 0.00 0.00 0.00 57 1012.8
20260502232825 54 195 0.0 0.0 0.00 0.00 0.00 56 1012.8
20260502232321 54 195 0.0 0.0 0.00 0.00 0.00 55 1012.5
20260502231818 54 195 0.0 0.0 0.00 0.00 0.00 55 1012.5
20260502231316 55 195 0.0 0.0 0.00 0.00 0.00 54 1012.6
20260502230814 55 195 0.0 0.0 0.00 0.00 0.00 54 1012.3
20260502230312 55 195 0.0 0.0 0.00 0.00 0.00 53 1012.6
20260502225808 55 195 0.0 0.0 0.00 0.00 0.00 52 1012.5
20260502225305 56 195 0.0 0.0 0.00 0.00 0.00 52 1012.6
20260502224802 56 180 0.0 0.0 0.00 0.00 0.00 51 1012.4
20260502224258 56 206 0.0 0.0 0.00 0.00 0.00 50 1012.4
20260502223756 56 199 0.0 0.0 0.00 0.00 0.00 50 1012.2
20260502223254 56 279 0.0 3.0 0.00 0.00 0.00 50 1012.3
20260502222751 56 101 3.0 3.0 0.00 0.00 0.00 50 1012.1
20260502222248 56 270 0.0 2.0 0.00 0.00 0.00 49 1011.9
20260502221743 56 187 1.0 1.0 0.00 0.00 0.00 50 1012.0
20260502221240 57 54 1.0 2.0 0.00 0.00 0.00 49 1012.0
20260502220736 57 246 0.0 1.0 0.00 0.00 0.00 48 1011.9
20260502220227 57 71 0.0 2.0 0.00 0.00 0.00 49 1011.9
20260502215724 57 90 0.0 0.0 0.00 0.00 0.00 48 1012.1
20260502215221 58 30 2.0 4.0 0.00 0.00 0.00 49 1011.8
20260502214718 57 240 1.0 3.0 0.00 0.00 0.00 49 1011.7
20260502214215 57 246 4.0 4.0 0.00 0.00 0.00 49 1011.8
20260502213713 57 221 2.0 4.0 0.00 0.00 0.00 49 1011.8
20260502213210 57 0 1.0 1.0 0.00 0.00 0.00 48 1011.8
20260502212708 57 270 0.0 2.0 0.00 0.00 0.00 48 1011.8
20260502212206 57 213 2.0 2.0 0.00 0.00 0.00 49 1011.8
20260502211702 57 180 0.0 4.0 0.00 0.00 0.00 49 1012.0
20260502211159 57 217 2.0 4.0 0.00 0.00 0.00 48 1011.7
20260502210656 57 195 0.0 3.0 0.00 0.00 0.00 49 1011.7
20260502210153 57 327 2.0 3.0 0.00 0.00 0.00 49 1011.9
20260502205650 57 285 0.0 2.0 0.00 0.00 0.00 48 1012.1
20260502205147 57 203 0.0 0.0 0.00 0.00 0.00 50 1012.0
20260502204644 57 180 0.0 3.0 0.00 0.00 0.00 49 1011.8
20260502204141 57 6 0.0 2.0 0.00 0.00 0.00 50 1012.0
20260502203638 57 201 3.0 4.0 0.00 0.00 0.00 49 1011.9
20260502203137 57 270 0.0 0.0 0.00 0.00 0.00 51 1011.9
20260502202631 56 261 0.0 2.0 0.00 0.00 0.00 50 1012.0
20260502202129 57 339 0.0 3.0 0.00 0.00 0.00 50 1012.2
20260502201625 56 353 1.0 2.0 0.00 0.00 0.00 50 1012.2
20260502201122 56 291 0.0 2.0 0.00 0.00 0.00 51 1012.6
20260502200618 56 111 0.0 2.0 0.00 0.00 0.00 50 1012.5
20260502200115 56 334 3.0 4.0 0.00 0.00 0.00 51 1012.5
20260502195614 56 0 0.0 1.0 0.00 0.00 0.00 51 1012.6
20260502195109 56 29 1.0 2.0 0.00 0.00 0.00 51 1012.8
20260502194606 56 337 0.0 1.0 0.00 0.00 0.00 51 1012.7
20260502194102 56 0 0.0 0.0 0.00 0.00 0.00 52 1012.8
20260502193600 55 77 0.0 2.0 0.00 0.00 0.00 52 1012.7
20260502193056 55 270 0.0 3.0 0.00 0.00 0.00 51 1012.8
20260502192552 55 20 1.0 2.0 0.00 0.00 0.00 52 1012.7
20260502192049 55 355 1.0 2.0 0.00 0.00 0.00 52 1012.7
20260502191546 55 328 0.0 2.0 0.00 0.00 0.00 51 1013.0
20260502191044 55 120 0.0 1.0 0.00 0.00 0.00 52 1013.0
20260502190541 55 282 0.0 3.0 0.00 0.00 0.00 52 1013.3
20260502190038 55 278 0.0 2.0 0.00 0.00 0.00 52 1013.3
20260502185533 54 278 0.0 2.0 0.00 0.00 0.00 52 1013.5
20260502185030 54 90 1.0 2.0 0.00 0.00 0.00 53 1013.3
20260502184526 54 270 1.0 3.0 0.00 0.00 0.00 53 1013.1
20260502184022 54 12 0.0 2.0 0.00 0.00 0.00 53 1013.5
20260502183518 54 270 1.0 4.0 0.00 0.00 0.00 53 1013.4
20260502183015 54 328 0.0 2.0 0.00 0.00 0.00 53 1013.4
20260502182509 54 117 0.0 3.0 0.00 0.00 0.00 53 1013.4
20260502182006 54 0 0.0 4.0 0.00 0.00 0.00 53 1013.0
20260502181504 54 117 0.0 1.0 0.00 0.00 0.00 54 1013.1
20260502181003 54 345 1.0 1.0 0.00 0.00 0.00 54 1013.2
20260502180459 54 140 0.0 2.0 0.00 0.00 0.00 53 1013.3
20260502170418 53 8 0.0 2.0 0.00 0.00 0.00 55 1013.5
20260502163901 53 286 0.0 3.0 0.00 0.00 0.00 57 1014.4
20260502163358 53 0 0.0 2.0 0.00 0.00 0.00 57 1014.5
20260502162856 53 356 2.0 2.0 0.00 0.00 0.00 57 1014.5
20260502162352 53 299 5.0 5.0 0.00 0.00 0.00 57 1014.8
20260502161849 52 261 0.0 3.0 0.00 0.00 0.00 57 1014.7
20260502161345 52 346 2.0 3.0 0.00 0.00 0.00 58 1014.9
20260502160843 52 328 3.0 5.0 0.00 0.00 0.00 58 1014.9
20260502160341 52 7 1.0 3.0 0.00 0.00 0.00 57 1015.1
20260502152316 52 220 2.0 2.0 0.00 0.00 0.00 60 1014.8
20260502151814 52 12 0.0 2.0 0.00 0.00 0.00 59 1014.8
20260502151310 52 255 1.0 2.0 0.00 0.00 0.00 59 1014.8
20260502150808 52 48 0.0 4.0 0.00 0.00 0.00 59 1014.7
20260502150304 52 254 0.0 4.0 0.00 0.00 0.00 59 1014.7
20260502130653 53 210 2.0 3.0 0.00 0.00 0.00 71 1014.3
20260502130151 53 0 1.0 2.0 0.00 0.00 0.00 72 1014.5
20260502123636 53 0 3.0 5.0 0.00 0.00 0.00 74 1013.6
20260502123133 53 117 2.0 3.0 0.00 0.00 0.00 75 1013.8
20260502122629 53 132 0.0 4.0 0.00 0.00 0.00 75 1013.8
20260502122126 53 270 0.0 3.0 0.00 0.00 0.00 76 1013.8
20260502121624 53 348 2.0 3.0 0.00 0.00 0.00 76 1013.9
20260502121121 53 0 0.0 1.0 0.00 0.00 0.00 76 1013.8
20260502120618 53 0 1.0 3.0 0.00 0.00 0.00 76 1013.6
20260502120115 53 319 2.0 3.0 0.00 0.00 0.00 76 1013.8
20260502115613 53 59 2.0 3.0 0.00 0.00 0.00 76 1013.8
20260502115108 53 328 1.0 4.0 0.00 0.00 0.00 77 1013.7
20260502114604 53 157 0.0 2.0 0.00 0.00 0.00 77 1013.7
20260502114102 53 29 2.0 3.0 0.00 0.00 0.00 77 1013.8
20260502113559 53 81 0.0 1.0 0.00 0.00 0.00 78 1013.8
20260502113058 53 90 0.0 2.0 0.00 0.00 0.00 78 1013.6
20260502112555 53 209 2.0 2.0 0.00 0.00 0.00 78 1013.6
20260502112052 52 261 0.0 2.0 0.00 0.00 0.00 78 1013.5
20260502111550 52 132 0.0 3.0 0.00 0.00 0.00 79 1013.4
20260502111047 52 345 0.0 2.0 0.00 0.00 0.00 79 1013.6
20260502110544 52 29 0.0 3.0 0.00 0.00 0.00 80 1013.5
20260502110042 52 172 0.0 2.0 0.00 0.00 0.00 80 1013.7
20260502105539 52 90 0.0 3.0 0.00 0.00 0.00 80 1013.5
20260502105037 51 0 0.0 0.0 0.00 0.00 0.00 80 1013.6
20260502104533 51 81 0.0 0.0 0.00 0.00 0.00 80 1013.5
20260502104031 51 81 0.0 2.0 0.00 0.00 0.00 80 1013.4
20260502103529 51 26 0.0 2.0 0.00 0.00 0.00 80 1013.4
20260502103027 51 355 0.0 0.0 0.00 0.00 0.00 80 1013.6
20260502102522 51 8 0.0 0.0 0.00 0.00 0.00 80 1013.7
20260502102020 51 8 0.0 0.0 0.00 0.00 0.00 80 1013.7
20260502101518 51 8 0.0 0.0 0.00 0.00 0.00 80 1013.8
20260502101016 51 8 0.0 0.0 0.00 0.00 0.00 80 1013.8
20260502100514 51 81 0.0 1.0 0.00 0.00 0.00 80 1013.8
20260502091448 51 0 0.0 0.0 0.00 0.00 0.00 80 1013.6
20260502090946 51 8 0.0 0.0 0.00 0.00 0.00 80 1013.5
20260502090442 51 8 0.0 0.0 0.00 0.00 0.00 80 1013.7
20260502071337 52 15 0.0 0.0 0.00 0.00 0.00 77 1012.7
20260502070835 52 15 0.0 0.0 0.00 0.00 0.00 77 1012.6
20260502070332 52 15 0.0 0.0 0.00 0.00 0.00 77 1012.7
20260502065831 52 15 0.0 0.0 0.00 0.00 0.00 77 1012.7
20260502065329 52 15 0.0 0.0 0.00 0.00 0.00 77 1012.5
20260502064827 52 15 0.0 0.0 0.00 0.00 0.00 77 1012.8
20260502064325 53 195 0.0 0.0 0.00 0.00 0.00 77 1012.8
20260502063822 53 195 0.0 0.0 0.00 0.00 0.00 76 1012.9
20260502063319 53 195 0.0 0.0 0.00 0.00 0.00 76 1012.8
20260502062816 53 15 0.0 0.0 0.00 0.00 0.00 76 1013.0
20260502062314 53 15 0.0 0.0 0.00 0.00 0.00 76 1013.1
20260502061813 53 14 0.0 0.0 0.00 0.00 0.00 76 1013.0
20260502061310 53 14 0.0 1.0 0.00 0.00 0.00 76 1013.4
20260502060805 53 0 0.0 2.0 0.00 0.00 0.00 76 1013.1
20260502060301 53 35 0.0 3.0 0.00 0.00 0.00 76 1013.3
20260502055759 53 278 0.0 1.0 0.00 0.00 0.00 76 1013.4
20260502055256 53 66 0.0 3.0 0.00 0.00 0.00 76 1013.4
20260502054755 53 225 0.0 2.0 0.00 0.00 0.00 75 1013.2
20260502054253 53 22 2.0 4.0 0.00 0.00 0.00 75 1013.2
20260502053750 53 294 1.0 2.0 0.00 0.00 0.00 75 1013.3
20260502053247 53 0 3.0 3.0 0.00 0.00 0.00 75 1012.7
20260502052745 53 237 0.0 1.0 0.00 0.00 0.00 75 1012.6
20260502052243 53 203 0.0 2.0 0.00 0.00 0.00 75 1012.6
20260502051740 53 199 2.0 3.0 0.00 0.00 0.00 75 1012.9
20260502051239 53 180 0.0 0.0 0.00 0.00 0.00 74 1012.9
20260502050735 53 165 0.0 1.0 0.00 0.00 0.00 74 1012.9
20260502050231 53 200 0.0 2.0 0.00 0.00 0.00 74 1013.0
20260502045728 53 180 1.0 2.0 0.00 0.00 0.00 74 1013.0
20260502045225 53 180 0.0 3.0 0.00 0.00 0.00 74 1012.9
20260502044722 53 166 0.0 3.0 0.00 0.00 0.00 74 1013.0
20260502044218 54 159 0.0 2.0 0.00 0.00 0.00 74 1013.0
20260502043716 54 209 0.0 1.0 0.00 0.00 0.00 74 1013.1
20260502043213 54 240 1.0 2.0 0.00 0.00 0.00 73 1012.8
20260502042712 54 195 0.0 3.0 0.00 0.00 0.00 73 1013.0
20260502042210 54 166 0.0 1.0 0.00 0.00 0.00 73 1012.8
20260502041708 54 180 0.0 2.0 0.00 0.00 0.00 73 1012.8
20260502041204 54 180 0.0 2.0 0.00 0.00 0.00 73 1013.1
20260502040701 54 188 0.0 1.0 0.00 0.00 0.00 73 1013.0
20260502040158 54 201 2.0 2.0 0.00 0.00 0.00 73 1013.2
20260502035654 54 200 0.0 2.0 0.00 0.00 0.00 73 1012.9
20260502035151 54 214 3.0 3.0 0.00 0.00 0.00 72 1012.9
20260502034649 54 184 2.0 4.0 0.00 0.00 0.00 72 1013.3
20260502034147 54 206 1.0 4.0 0.00 0.00 0.00 72 1013.2
20260502033645 54 208 2.0 5.0 0.00 0.00 0.00 72 1013.2
20260502033143 54 186 0.0 4.0 0.00 0.00 0.00 72 1013.4